Time,TemperatureF,DewpointF,PressureIn,WindDirection,WindDirectionDegrees,WindSpeedMPH,WindSpeedGustMPH,Humidity,HourlyPrecipIn,Conditions,Clouds,dailyrainin,SoftwareType,DateUTC
2013-01-27 00:01:00,15.4,0.0,30.30,WSW,256,0.0,2.0,50,0.00,,,0.00,Wunderground v.1.15,2013-01-27 05:01:00,
2013-01-27 00:06:00,15.4,0.5,30.30,WSW,256,1.0,2.0,51,0.00,,,0.00,Wunderground v.1.15,2013-01-27 05:06:00,
2013-01-27 00:07:00,15.4,0.5,30.30,WSW,256,0.0,2.0,51,0.00,,,0.00,Wunderground v.1.15,2013-01-27 05:07:00,
2013-01-27 00:08:00,15.2,0.3,30.30,WSW,256,0.0,2.0,51,0.00,,,0.00,Wunderground v.1.15,2013-01-27 05:08:00,
2013-01-27 00:14:00,15.2,0.3,30.30,WSW,251,0.0,4.0,51,0.00,,,0.00,Wunderground v.1.15,2013-01-27 05:14:00,
2013-01-27 00:20:00,15.1,0.2,30.31,WSW,251,0.0,1.0,51,0.00,,,0.00,Wunderground v.1.15,2013-01-27 05:20:00,
2013-01-27 00:25:00,15.1,0.2,30.31,West,267,0.0,2.0,51,0.00,,,0.00,Wunderground v.1.15,2013-01-27 05:25:00,
2013-01-27 00:30:00,15.1,0.6,30.31,West,267,0.0,0.0,52,0.00,,,0.00,Wunderground v.1.15,2013-01-27 05:30:00,
2013-01-27 00:36:00,14.9,0.4,30.31,West,267,2.0,2.0,52,0.00,,,0.00,Wunderground v.1.15,2013-01-27 05:36:00,
2013-01-27 00:42:00,14.8,0.3,30.31,West,267,0.0,1.0,52,0.00,,,0.00,Wunderground v.1.15,2013-01-27 05:42:00,
2013-01-27 00:48:00,14.6,0.1,30.31,West,267,0.0,1.0,52,0.00,,,0.00,Wunderground v.1.15,2013-01-27 05:48:00,
2013-01-27 00:53:00,14.6,0.5,30.31,West,267,1.0,1.0,53,0.00,,,0.00,Wunderground v.1.15,2013-01-27 05:53:00,
2013-01-27 00:59:00,14.6,0.5,30.31,West,267,0.0,1.0,53,0.00,,,0.00,Wunderground v.1.15,2013-01-27 05:59:00,
2013-01-27 01:04:00,14.6,0.5,30.31,West,268,0.0,1.0,53,0.00,,,0.00,Wunderground v.1.15,2013-01-27 06:04:00,
2013-01-27 01:10:00,14.6,0.5,30.31,West,269,2.0,2.0,53,0.00,,,0.00,Wunderground v.1.15,2013-01-27 06:10:00,
2013-01-27 01:16:00,14.3,0.7,30.31,West,261,1.0,2.0,54,0.00,,,0.00,Wunderground v.1.15,2013-01-27 06:16:00,
2013-01-27 01:21:00,14.3,1.1,30.31,West,261,1.0,1.0,55,0.00,,,0.00,Wunderground v.1.15,2013-01-27 06:21:00,
2013-01-27 01:27:00,14.1,0.9,30.31,West,261,0.0,1.0,55,0.00,,,0.00,Wunderground v.1.15,2013-01-27 06:27:00,
2013-01-27 01:32:00,14.0,0.8,30.31,West,261,0.0,0.0,55,0.00,,,0.00,Wunderground v.1.15,2013-01-27 06:32:00,
2013-01-27 01:38:00,14.0,0.8,30.31,West,261,0.0,2.0,55,0.00,,,0.00,Wunderground v.1.15,2013-01-27 06:38:00,
2013-01-27 01:43:00,14.0,0.8,30.31,West,264,0.0,2.0,55,0.00,,,0.00,Wunderground v.1.15,2013-01-27 06:43:00,
2013-01-27 01:49:00,14.0,0.8,30.32,WSW,254,1.0,2.0,55,0.00,,,0.00,Wunderground v.1.15,2013-01-27 06:49:00,
2013-01-27 01:55:00,14.0,0.8,30.32,WSW,254,0.0,3.0,55,0.00,,,0.00,Wunderground v.1.15,2013-01-27 06:55:00,
2013-01-27 02:00:00,14.0,1.2,30.32,WSW,254,0.0,0.0,56,0.00,,,0.00,Wunderground v.1.15,2013-01-27 07:00:00,
2013-01-27 02:05:00,14.0,1.2,30.33,WSW,254,0.0,2.0,56,0.00,,,0.00,Wunderground v.1.15,2013-01-27 07:05:00,
2013-01-27 02:13:00,13.6,1.2,30.33,WSW,254,1.0,2.0,57,0.00,,,0.00,Wunderground v.1.15,2013-01-27 07:13:00,
2013-01-27 02:18:00,13.3,1.3,30.33,WSW,254,0.0,3.0,58,0.00,,,0.00,Wunderground v.1.15,2013-01-27 07:18:00,
2013-01-27 02:23:00,13.1,1.1,30.33,WSW,252,2.0,5.0,58,0.00,,,0.00,Wunderground v.1.15,2013-01-27 07:23:00,
2013-01-27 02:28:00,12.9,1.2,30.33,WSW,252,4.0,5.0,59,0.00,,,0.00,Wunderground v.1.15,2013-01-27 07:28:00,
2013-01-27 02:33:00,12.8,1.5,30.33,WSW,252,2.0,3.0,60,0.00,,,0.00,Wunderground v.1.15,2013-01-27 07:33:00,
2013-01-27 02:38:00,12.8,1.5,30.33,WSW,252,0.0,3.0,60,0.00,,,0.00,Wunderground v.1.15,2013-01-27 07:38:00,
2013-01-27 02:43:00,12.9,1.6,30.33,WSW,252,0.0,1.0,60,0.00,,,0.00,Wunderground v.1.15,2013-01-27 07:43:00,
2013-01-27 02:48:00,12.9,1.6,30.33,WSW,253,0.0,3.0,60,0.00,,,0.00,Wunderground v.1.15,2013-01-27 07:48:00,
2013-01-27 02:53:00,13.3,2.0,30.34,WSW,253,1.0,2.0,60,0.00,,,0.00,Wunderground v.1.15,2013-01-27 07:53:00,
2013-01-27 02:58:00,13.3,2.0,30.34,WSW,253,1.0,4.0,60,0.00,,,0.00,Wunderground v.1.15,2013-01-27 07:58:00,
2013-01-27 03:03:00,13.3,2.3,30.34,WSW,255,2.0,4.0,61,0.00,,,0.00,Wunderground v.1.15,2013-01-27 08:03:00,
2013-01-27 03:08:00,13.5,2.5,30.33,WSW,255,0.0,4.0,61,0.00,,,0.00,Wunderground v.1.15,2013-01-27 08:08:00,
2013-01-27 03:13:00,13.5,2.5,30.33,WSW,255,2.0,3.0,61,0.00,,,0.00,Wunderground v.1.15,2013-01-27 08:13:00,
2013-01-27 03:18:00,13.5,2.5,30.33,WSW,254,3.0,5.0,61,0.00,,,0.00,Wunderground v.1.15,2013-01-27 08:18:00,
2013-01-27 03:23:00,13.3,2.7,30.33,WSW,252,2.0,8.0,62,0.00,,,0.00,Wunderground v.1.15,2013-01-27 08:23:00,
2013-01-27 03:28:00,13.5,2.9,30.33,WSW,251,0.0,8.0,62,0.00,,,0.00,Wunderground v.1.15,2013-01-27 08:28:00,
2013-01-27 03:33:00,13.1,2.5,30.33,WSW,249,4.0,4.0,62,0.00,,,0.00,Wunderground v.1.15,2013-01-27 08:33:00,
2013-01-27 03:38:00,13.1,2.9,30.33,WSW,248,2.0,4.0,63,0.00,,,0.00,Wunderground v.1.15,2013-01-27 08:38:00,
2013-01-27 03:43:00,13.3,3.0,30.33,WSW,248,0.0,3.0,63,0.00,,,0.00,Wunderground v.1.15,2013-01-27 08:43:00,
2013-01-27 03:48:00,13.3,3.0,30.33,WSW,248,0.0,3.0,63,0.00,,,0.00,Wunderground v.1.15,2013-01-27 08:48:00,
2013-01-27 03:53:00,13.3,3.0,30.33,WSW,248,1.0,3.0,63,0.00,,,0.00,Wunderground v.1.15,2013-01-27 08:53:00,
2013-01-27 03:58:00,13.1,3.2,30.33,WSW,248,0.0,3.0,64,0.00,,,0.00,Wunderground v.1.15,2013-01-27 08:58:00,
2013-01-27 04:04:00,13.3,3.0,30.33,WSW,249,0.0,1.0,63,0.00,,,0.00,Wunderground v.1.15,2013-01-27 09:04:00,
2013-01-27 04:09:00,13.3,3.0,30.34,West,267,3.0,5.0,63,0.00,,,0.00,Wunderground v.1.15,2013-01-27 09:09:00,
2013-01-27 04:14:00,13.3,3.4,30.34,West,269,1.0,4.0,64,0.00,,,0.00,Wunderground v.1.15,2013-01-27 09:14:00,
2013-01-27 04:19:00,13.5,3.6,30.34,West,269,0.0,4.0,64,0.00,,,0.00,Wunderground v.1.15,2013-01-27 09:19:00,
2013-01-27 04:24:00,13.6,3.7,30.34,West,267,0.0,4.0,64,0.00,,,0.00,Wunderground v.1.15,2013-01-27 09:24:00,
2013-01-27 04:29:00,13.6,4.0,30.34,West,267,3.0,4.0,65,0.00,,,0.00,Wunderground v.1.15,2013-01-27 09:29:00,
2013-01-27 04:34:00,13.6,4.0,30.35,West,267,3.0,4.0,65,0.00,,,0.00,Wunderground v.1.15,2013-01-27 09:34:00,
2013-01-27 04:39:00,13.6,4.0,30.35,West,267,3.0,5.0,65,0.00,,,0.00,Wunderground v.1.15,2013-01-27 09:39:00,
2013-01-27 04:44:00,13.8,4.2,30.35,West,266,2.0,8.0,65,0.00,,,0.00,Wunderground v.1.15,2013-01-27 09:44:00,
2013-01-27 04:49:00,13.6,4.0,30.34,West,264,3.0,8.0,65,0.00,,,0.00,Wunderground v.1.15,2013-01-27 09:49:00,
2013-01-27 04:54:00,13.5,4.2,30.34,West,263,1.0,4.0,66,0.00,,,0.00,Wunderground v.1.15,2013-01-27 09:54:00,
2013-01-27 04:59:00,13.3,4.1,30.34,West,263,1.0,4.0,66,0.00,,,0.00,Wunderground v.1.15,2013-01-27 09:59:00,
2013-01-27 05:04:00,13.5,4.2,30.35,West,263,0.0,2.0,66,0.00,,,0.00,Wunderground v.1.15,2013-01-27 10:04:00,
2013-01-27 05:09:00,13.6,4.3,30.35,West,263,0.0,2.0,66,0.00,,,0.00,Wunderground v.1.15,2013-01-27 10:09:00,
2013-01-27 05:14:00,13.6,4.3,30.35,West,263,0.0,1.0,66,0.00,,,0.00,Wunderground v.1.15,2013-01-27 10:14:00,
2013-01-27 05:19:00,13.5,4.2,30.36,West,263,2.0,3.0,66,0.00,,,0.00,Wunderground v.1.15,2013-01-27 10:19:00,
2013-01-27 05:24:00,12.8,3.6,30.36,West,263,0.0,4.0,66,0.00,,,0.00,Wunderground v.1.15,2013-01-27 10:24:00,
2013-01-27 05:29:00,12.3,4.1,30.36,West,263,0.0,4.0,69,0.00,,,0.00,Wunderground v.1.15,2013-01-27 10:29:00,
2013-01-27 05:34:00,12.6,4.3,30.36,West,263,0.0,2.0,69,0.00,,,0.00,Wunderground v.1.15,2013-01-27 10:34:00,
2013-01-27 05:39:00,12.9,4.3,30.36,West,263,0.0,2.0,68,0.00,,,0.00,Wunderground v.1.15,2013-01-27 10:39:00,
2013-01-27 05:44:00,12.9,4.3,30.36,West,263,0.0,0.0,68,0.00,,,0.00,Wunderground v.1.15,2013-01-27 10:44:00,
2013-01-27 05:49:00,12.9,4.3,30.36,West,263,0.0,0.0,68,0.00,,,0.00,Wunderground v.1.15,2013-01-27 10:49:00,
2013-01-27 05:54:00,12.8,4.2,30.36,West,263,0.0,0.0,68,0.00,,,0.00,Wunderground v.1.15,2013-01-27 10:54:00,
2013-01-27 05:59:00,12.8,4.2,30.36,West,263,0.0,0.0,68,0.00,,,0.00,Wunderground v.1.15,2013-01-27 10:59:00,
2013-01-27 06:04:00,12.8,4.5,30.36,West,263,1.0,2.0,69,0.00,,,0.00,Wunderground v.1.15,2013-01-27 11:04:00,
2013-01-27 06:09:00,12.9,4.6,30.36,West,263,0.0,2.0,69,0.00,,,0.00,Wunderground v.1.15,2013-01-27 11:09:00,
2013-01-27 06:14:00,13.3,5.0,30.36,West,263,0.0,0.0,69,0.00,,,0.00,Wunderground v.1.15,2013-01-27 11:14:00,
2013-01-27 06:19:00,13.3,5.0,30.36,West,263,0.0,0.0,69,0.00,,,0.00,Wunderground v.1.15,2013-01-27 11:19:00,
2013-01-27 06:24:00,13.1,4.8,30.36,West,263,0.0,0.0,69,0.00,,,0.00,Wunderground v.1.15,2013-01-27 11:24:00,
2013-01-27 06:30:00,13.3,5.0,30.36,West,263,0.0,0.0,69,0.00,,,0.00,Wunderground v.1.15,2013-01-27 11:30:00,
2013-01-27 06:35:00,13.5,5.2,30.37,West,262,0.0,2.0,69,0.00,,,0.00,Wunderground v.1.15,2013-01-27 11:35:00,
2013-01-27 06:40:00,13.5,5.2,30.37,West,262,0.0,2.0,69,0.00,,,0.00,Wunderground v.1.15,2013-01-27 11:40:00,
2013-01-27 06:45:00,13.5,5.2,30.37,West,262,0.0,0.0,69,0.00,,,0.00,Wunderground v.1.15,2013-01-27 11:45:00,
2013-01-27 06:50:00,13.5,5.2,30.37,West,262,0.0,0.0,69,0.00,,,0.00,Wunderground v.1.15,2013-01-27 11:50:00,
2013-01-27 06:55:00,13.3,5.0,30.37,West,262,0.0,4.0,69,0.00,,,0.00,Wunderground v.1.15,2013-01-27 11:55:00,
2013-01-27 07:00:00,13.3,5.3,30.37,West,262,0.0,4.0,70,0.00,,,0.00,Wunderground v.1.15,2013-01-27 12:00:00,
2013-01-27 07:05:00,13.3,5.3,30.38,West,262,0.0,1.0,70,0.00,,,0.00,Wunderground v.1.15,2013-01-27 12:05:00,
2013-01-27 07:10:00,13.5,5.5,30.38,West,262,0.0,0.0,70,0.00,,,0.00,Wunderground v.1.15,2013-01-27 12:10:00,
2013-01-27 07:15:00,13.3,5.0,30.38,West,262,1.0,1.0,69,0.00,,,0.00,Wunderground v.1.15,2013-01-27 12:15:00,
2013-01-27 07:20:00,12.8,4.9,30.39,West,262,0.0,0.0,70,0.00,,,0.00,Wunderground v.1.15,2013-01-27 12:20:00,
2013-01-27 07:25:00,12.8,5.2,30.39,West,262,0.0,2.0,71,0.00,,,0.00,Wunderground v.1.15,2013-01-27 12:25:00,
2013-01-27 07:30:00,12.8,5.2,30.39,West,262,0.0,0.0,71,0.00,,,0.00,Wunderground v.1.15,2013-01-27 12:30:00,
2013-01-27 07:35:00,12.9,5.6,30.39,West,262,0.0,2.0,72,0.00,,,0.00,Wunderground v.1.15,2013-01-27 12:35:00,
2013-01-27 07:40:00,12.9,5.3,30.39,West,262,0.0,0.0,71,0.00,,,0.00,Wunderground v.1.15,2013-01-27 12:40:00,
2013-01-27 07:45:00,13.1,5.5,30.39,West,262,0.0,0.0,71,0.00,,,0.00,Wunderground v.1.15,2013-01-27 12:45:00,
2013-01-27 07:50:00,13.8,6.1,30.39,West,262,0.0,0.0,71,0.00,,,0.00,Wunderground v.1.15,2013-01-27 12:50:00,
2013-01-27 07:55:00,14.6,6.6,30.39,WNW,285,0.0,3.0,70,0.00,,,0.00,Wunderground v.1.15,2013-01-27 12:55:00,
2013-01-27 08:00:00,15.2,6.8,30.39,WNW,285,0.0,0.0,69,0.00,,,0.00,Wunderground v.1.15,2013-01-27 13:00:00,
2013-01-27 08:05:00,15.9,6.9,30.40,WNW,285,2.0,3.0,67,0.00,,,0.00,Wunderground v.1.15,2013-01-27 13:05:00,
2013-01-27 08:10:00,16.1,6.4,30.40,West,279,3.0,3.0,65,0.00,,,0.00,Wunderground v.1.15,2013-01-27 13:10:00,
2013-01-27 08:15:00,16.5,6.8,30.40,West,275,0.0,8.0,65,0.00,,,0.00,Wunderground v.1.15,2013-01-27 13:15:00,
2013-01-27 08:20:00,17.0,7.3,30.41,West,276,1.0,2.0,65,0.00,,,0.00,Wunderground v.1.15,2013-01-27 13:20:00,
2013-01-27 08:25:00,17.3,6.5,30.41,West,275,3.0,4.0,62,0.00,,,0.00,Wunderground v.1.15,2013-01-27 13:25:00,
2013-01-27 08:30:00,17.7,6.9,30.41,WNW,302,3.0,3.0,62,0.00,,,0.00,Wunderground v.1.15,2013-01-27 13:30:00,
2013-01-27 08:35:00,18.1,6.9,30.41,NW,318,6.0,6.0,61,0.00,,,0.00,Wunderground v.1.15,2013-01-27 13:35:00,
2013-01-27 08:40:00,18.8,7.2,30.41,NW,320,3.0,3.0,60,0.00,,,0.00,Wunderground v.1.15,2013-01-27 13:40:00,
2013-01-27 08:45:00,18.9,6.5,30.41,West,267,3.0,9.0,58,0.00,,,0.00,Wunderground v.1.15,2013-01-27 13:45:00,
2013-01-27 08:50:00,19.1,6.3,30.41,NW,315,6.0,6.0,57,0.00,,,0.00,Wunderground v.1.15,2013-01-27 13:50:00,
2013-01-27 08:55:00,19.4,6.6,30.41,NNW,343,2.0,7.0,57,0.00,,,0.00,Wunderground v.1.15,2013-01-27 13:55:00,
2013-01-27 09:00:00,19.7,6.5,30.41,WNW,297,3.0,4.0,56,0.00,,,0.00,Wunderground v.1.15,2013-01-27 14:00:00,
2013-01-27 09:05:00,19.7,5.7,30.42,NNW,338,3.0,10.0,54,0.00,,,0.00,Wunderground v.1.15,2013-01-27 14:05:00,
2013-01-27 09:10:00,19.7,5.7,30.42,NW,309,7.0,8.0,54,0.00,,,0.00,Wunderground v.1.15,2013-01-27 14:10:00,
2013-01-27 09:16:00,20.0,6.0,30.42,WSW,257,1.0,8.0,54,0.00,,,0.00,Wunderground v.1.15,2013-01-27 14:16:00,
2013-01-27 09:21:00,20.3,5.5,30.42,WNW,291,4.0,9.0,52,0.00,,,0.00,Wunderground v.1.15,2013-01-27 14:21:00,
2013-01-27 09:26:00,20.5,5.6,30.42,NW,317,3.0,9.0,52,0.00,,,0.00,Wunderground v.1.15,2013-01-27 14:26:00,
2013-01-27 09:31:00,21.1,5.3,30.42,NNW,338,6.0,6.0,50,0.00,,,0.00,Wunderground v.1.15,2013-01-27 14:31:00,
2013-01-27 09:36:00,21.6,6.2,30.43,NNW,331,2.0,7.0,51,0.00,,,0.00,Wunderground v.1.15,2013-01-27 14:36:00,
2013-01-27 09:41:00,21.8,4.2,30.43,North,355,2.0,10.0,46,0.00,,,0.00,Wunderground v.1.15,2013-01-27 14:41:00,
2013-01-27 09:46:00,21.9,3.8,30.43,NNW,333,7.0,17.0,45,0.00,,,0.00,Wunderground v.1.15,2013-01-27 14:46:00,
2013-01-27 09:51:00,22.1,3.5,30.43,WSW,246,1.0,4.0,44,0.00,,,0.00,Wunderground v.1.15,2013-01-27 14:51:00,
2013-01-27 09:56:00,22.5,3.8,30.43,NW,305,6.0,8.0,44,0.00,,,0.00,Wunderground v.1.15,2013-01-27 14:56:00,
2013-01-27 10:01:00,22.4,1.7,30.43,NNE,12,2.0,16.0,40,0.00,,,0.00,Wunderground v.1.15,2013-01-27 15:01:00,
2013-01-27 10:06:00,22.4,2.2,30.43,WNW,300,0.0,16.0,41,0.00,,,0.00,Wunderground v.1.15,2013-01-27 15:06:00,
2013-01-27 10:11:00,22.7,2.0,30.43,NNW,346,4.0,9.0,40,0.00,,,0.00,Wunderground v.1.15,2013-01-27 15:11:00,
2013-01-27 10:16:00,22.9,2.7,30.43,West,260,13.0,13.0,41,0.00,,,0.00,Wunderground v.1.15,2013-01-27 15:16:00,
2013-01-27 10:21:00,23.0,1.7,30.43,WNW,298,2.0,16.0,39,0.00,,,0.00,Wunderground v.1.15,2013-01-27 15:21:00,
2013-01-27 10:26:00,23.5,1.6,30.43,West,280,2.0,16.0,38,0.00,,,0.00,Wunderground v.1.15,2013-01-27 15:26:00,
2013-01-27 10:31:00,23.5,1.0,30.43,WNW,299,3.0,11.0,37,0.00,,,0.00,Wunderground v.1.15,2013-01-27 15:31:00,
2013-01-27 10:36:00,23.6,1.1,30.44,West,270,5.0,11.0,37,0.00,,,0.00,Wunderground v.1.15,2013-01-27 15:36:00,
2013-01-27 10:41:00,23.8,0.7,30.44,ESE,123,0.0,10.0,36,0.00,,,0.00,Wunderground v.1.15,2013-01-27 15:41:00,
2013-01-27 10:46:00,24.5,1.3,30.44,NNW,328,2.0,10.0,36,0.00,,,0.00,Wunderground v.1.15,2013-01-27 15:46:00,
2013-01-27 10:51:00,24.8,1.0,30.45,West,265,3.0,6.0,35,0.00,,,0.00,Wunderground v.1.15,2013-01-27 15:51:00,
2013-01-27 10:56:00,25.3,1.4,30.45,WNW,283,3.0,6.0,35,0.00,,,0.00,Wunderground v.1.15,2013-01-27 15:56:00,
2013-01-27 11:01:00,25.3,2.0,30.45,WSW,244,3.0,4.0,36,0.00,,,0.00,Wunderground v.1.15,2013-01-27 16:01:00,
2013-01-27 11:06:00,25.7,1.8,30.45,NNW,332,7.0,9.0,35,0.00,,,0.00,Wunderground v.1.15,2013-01-27 16:06:00,
2013-01-27 11:12:00,25.7,1.2,30.45,West,278,3.0,9.0,34,0.00,,,0.00,Wunderground v.1.15,2013-01-27 16:12:00,
2013-01-27 11:17:00,25.6,-0.2,30.45,NW,311,1.0,13.0,32,0.00,,,0.00,Wunderground v.1.15,2013-01-27 16:17:00,
2013-01-27 11:22:00,25.7,-0.1,30.44,West,281,3.0,10.0,32,0.00,,,0.00,Wunderground v.1.15,2013-01-27 16:22:00,
2013-01-27 11:27:00,26.1,0.9,30.44,WNW,287,6.0,12.0,33,0.00,,,0.00,Wunderground v.1.15,2013-01-27 16:27:00,
2013-01-27 11:32:00,26.1,-0.5,30.44,NW,315,2.0,8.0,31,0.00,,,0.00,Wunderground v.1.15,2013-01-27 16:32:00,
2013-01-27 11:37:00,26.3,1.0,30.43,WNW,290,3.0,13.0,33,0.00,,,0.00,Wunderground v.1.15,2013-01-27 16:37:00,
2013-01-27 11:42:00,26.6,0.0,30.43,NE,44,1.0,14.0,31,0.00,,,0.00,Wunderground v.1.15,2013-01-27 16:42:00,
2013-01-27 11:47:00,26.7,0.7,30.43,West,267,6.0,14.0,32,0.00,,,0.00,Wunderground v.1.15,2013-01-27 16:47:00,
2013-01-27 11:52:00,26.9,0.2,30.43,NW,318,2.0,5.0,31,0.00,,,0.00,Wunderground v.1.15,2013-01-27 16:52:00,
2013-01-27 11:57:00,27.2,0.5,30.43,WNW,298,4.0,11.0,31,0.00,,,0.00,Wunderground v.1.15,2013-01-27 16:57:00,
2013-01-27 12:02:00,27.2,-0.2,30.43,NNW,331,6.0,7.0,30,0.00,,,0.00,Wunderground v.1.15,2013-01-27 17:02:00,
2013-01-27 12:07:00,27.9,1.8,30.42,West,271,3.0,7.0,32,0.00,,,0.00,Wunderground v.1.15,2013-01-27 17:07:00,
2013-01-27 12:12:00,28.2,0.7,30.42,WNW,290,0.0,9.0,30,0.00,,,0.00,Wunderground v.1.15,2013-01-27 17:12:00,
2013-01-27 12:17:00,28.2,1.4,30.42,WNW,292,3.0,11.0,31,0.00,,,0.00,Wunderground v.1.15,2013-01-27 17:17:00,
2013-01-27 12:22:00,28.7,1.1,30.42,WNW,294,3.0,4.0,30,0.00,,,0.00,Wunderground v.1.15,2013-01-27 17:22:00,
2013-01-27 12:27:00,28.7,-0.4,30.42,NW,309,1.0,10.0,28,0.00,,,0.00,Wunderground v.1.15,2013-01-27 17:27:00,
2013-01-27 12:32:00,28.5,-1.3,30.42,WNW,290,4.0,10.0,27,0.00,,,0.00,Wunderground v.1.15,2013-01-27 17:32:00,
2013-01-27 12:37:00,28.5,-0.5,30.41,WSW,248,3.0,14.0,28,0.00,,,0.00,Wunderground v.1.15,2013-01-27 17:37:00,
2013-01-27 12:42:00,29.0,-0.1,30.41,NW,311,12.0,13.0,28,0.00,,,0.00,Wunderground v.1.15,2013-01-27 17:42:00,
2013-01-27 12:47:00,28.7,-0.4,30.41,WNW,301,1.0,14.0,28,0.00,,,0.00,Wunderground v.1.15,2013-01-27 17:47:00,
2013-01-27 12:52:00,29.0,-0.1,30.41,NW,308,1.0,9.0,28,0.00,,,0.00,Wunderground v.1.15,2013-01-27 17:52:00,
2013-01-27 12:57:00,29.0,-1.7,30.41,WNW,298,1.0,18.0,26,0.00,,,0.00,Wunderground v.1.15,2013-01-27 17:57:00,
2013-01-27 13:02:00,29.4,-0.5,30.41,NNW,336,7.0,12.0,27,0.00,,,0.00,Wunderground v.1.15,2013-01-27 18:02:00,
2013-01-27 13:08:00,29.7,-1.1,30.41,NNW,338,4.0,12.0,26,0.00,,,0.00,Wunderground v.1.15,2013-01-27 18:08:00,
2013-01-27 13:13:00,30.1,0.1,30.41,NW,304,2.0,9.0,27,0.00,,,0.00,Wunderground v.1.15,2013-01-27 18:13:00,
2013-01-27 13:18:00,30.1,0.9,30.41,WSW,252,2.0,9.0,28,0.00,,,0.00,Wunderground v.1.15,2013-01-27 18:18:00,
2013-01-27 13:23:00,30.6,-0.3,30.41,NW,316,8.0,9.0,26,0.00,,,0.00,Wunderground v.1.15,2013-01-27 18:23:00,
2013-01-27 13:28:00,30.4,-0.5,30.41,NNW,346,3.0,16.0,26,0.00,,,0.00,Wunderground v.1.15,2013-01-27 18:28:00,
2013-01-27 13:33:00,30.0,-1.6,30.41,WNW,302,0.0,11.0,25,0.00,,,0.00,Wunderground v.1.15,2013-01-27 18:33:00,
2013-01-27 13:38:00,30.0,-0.8,30.40,WNW,295,0.0,11.0,26,0.00,,,0.00,Wunderground v.1.15,2013-01-27 18:38:00,
2013-01-27 13:43:00,30.6,-0.3,30.40,WNW,293,1.0,7.0,26,0.00,,,0.00,Wunderground v.1.15,2013-01-27 18:43:00,
2013-01-27 13:48:00,30.9,-0.9,30.40,WNW,297,4.0,9.0,25,0.00,,,0.00,Wunderground v.1.15,2013-01-27 18:48:00,
2013-01-27 13:53:00,31.0,0.1,30.39,WNW,286,8.0,11.0,26,0.00,,,0.00,Wunderground v.1.15,2013-01-27 18:53:00,
2013-01-27 13:58:00,31.5,0.5,30.39,WNW,300,7.0,11.0,26,0.00,,,0.00,Wunderground v.1.15,2013-01-27 18:58:00,
2013-01-27 14:03:00,31.3,-0.5,30.39,West,271,1.0,12.0,25,0.00,,,0.00,Wunderground v.1.15,2013-01-27 19:03:00,
2013-01-27 14:08:00,31.3,0.3,30.39,West,264,3.0,12.0,26,0.00,,,0.00,Wunderground v.1.15,2013-01-27 19:08:00,
2013-01-27 14:13:00,31.6,-1.1,30.39,WSW,249,6.0,9.0,24,0.00,,,0.00,Wunderground v.1.15,2013-01-27 19:13:00,
2013-01-27 14:18:00,31.2,-0.6,30.39,WSW,252,7.0,10.0,25,0.00,,,0.00,Wunderground v.1.15,2013-01-27 19:18:00,
2013-01-27 14:23:00,31.5,-0.3,30.39,WNW,284,2.0,9.0,25,0.00,,,0.00,Wunderground v.1.15,2013-01-27 19:23:00,
2013-01-27 14:28:00,31.8,-1.0,30.39,WNW,288,1.0,9.0,24,0.00,,,0.00,Wunderground v.1.15,2013-01-27 19:28:00,
2013-01-27 14:33:00,31.8,-1.0,30.39,NW,305,11.0,11.0,24,0.00,,,0.00,Wunderground v.1.15,2013-01-27 19:33:00,
2013-01-27 14:38:00,31.9,-0.9,30.40,WNW,298,7.0,11.0,24,0.00,,,0.00,Wunderground v.1.15,2013-01-27 19:38:00,
2013-01-27 14:43:00,31.9,-0.9,30.40,WNW,292,4.0,8.0,24,0.00,,,0.00,Wunderground v.1.15,2013-01-27 19:43:00,
2013-01-27 14:48:00,31.8,-1.9,30.40,West,273,1.0,11.0,23,0.00,,,0.00,Wunderground v.1.15,2013-01-27 19:48:00,
2013-01-27 14:53:00,32.4,-1.4,30.39,West,273,4.0,5.0,23,0.00,,,0.00,Wunderground v.1.15,2013-01-27 19:53:00,
2013-01-27 14:58:00,32.7,-1.1,30.39,WNW,294,5.0,5.0,23,0.00,,,0.00,Wunderground v.1.15,2013-01-27 19:58:00,
2013-01-27 15:03:00,32.7,-1.1,30.39,West,274,5.0,6.0,23,0.00,,,0.00,Wunderground v.1.15,2013-01-27 20:03:00,
2013-01-27 15:08:00,32.9,0.0,30.40,West,265,1.0,6.0,24,0.00,,,0.00,Wunderground v.1.15,2013-01-27 20:08:00,
2013-01-27 15:13:00,33.2,-0.7,30.40,West,280,4.0,9.0,23,0.00,,,0.00,Wunderground v.1.15,2013-01-27 20:13:00,
2013-01-27 15:18:00,32.9,-0.9,30.40,WSW,257,0.0,9.0,23,0.00,,,0.00,Wunderground v.1.15,2013-01-27 20:18:00,
2013-01-27 15:23:00,33.2,-1.6,30.40,WSW,255,2.0,8.0,22,0.00,,,0.00,Wunderground v.1.15,2013-01-27 20:23:00,
2013-01-27 15:28:00,32.9,-0.9,30.40,WNW,287,0.0,8.0,23,0.00,,,0.00,Wunderground v.1.15,2013-01-27 20:28:00,
2013-01-27 15:33:00,33.1,-1.7,30.40,WSW,257,3.0,9.0,22,0.00,,,0.00,Wunderground v.1.15,2013-01-27 20:33:00,
2013-01-27 15:38:00,32.5,-1.3,30.40,WSW,248,6.0,11.0,23,0.00,,,0.00,Wunderground v.1.15,2013-01-27 20:38:00,
2013-01-27 15:43:00,32.5,-1.3,30.40,WNW,286,3.0,6.0,23,0.00,,,0.00,Wunderground v.1.15,2013-01-27 20:43:00,
2013-01-27 15:48:00,32.9,-0.9,30.40,WNW,296,2.0,7.0,23,0.00,,,0.00,Wunderground v.1.15,2013-01-27 20:48:00,
2013-01-27 15:53:00,32.9,-0.9,30.41,West,275,0.0,7.0,23,0.00,,,0.00,Wunderground v.1.15,2013-01-27 20:53:00,
2013-01-27 15:58:00,32.8,-2.0,30.41,West,271,4.0,8.0,22,0.00,,,0.00,Wunderground v.1.15,2013-01-27 20:58:00,
2013-01-27 16:03:00,32.5,-1.3,30.41,West,267,7.0,14.0,23,0.00,,,0.00,Wunderground v.1.15,2013-01-27 21:03:00,
2013-01-27 16:08:00,32.4,-1.4,30.40,WNW,288,1.0,14.0,23,0.00,,,0.00,Wunderground v.1.15,2013-01-27 21:08:00,
2013-01-27 16:13:00,32.4,-1.4,30.40,West,267,3.0,7.0,23,0.00,,,0.00,Wunderground v.1.15,2013-01-27 21:13:00,
2013-01-27 16:19:00,32.2,-0.6,30.40,West,267,2.0,9.0,24,0.00,,,0.00,Wunderground v.1.15,2013-01-27 21:19:00,
2013-01-27 16:24:00,32.2,-1.5,30.42,West,275,5.0,5.0,23,0.00,,,0.00,Wunderground v.1.15,2013-01-27 21:24:00,
2013-01-27 16:28:00,32.1,-1.6,30.42,West,259,0.0,8.0,23,0.00,,,0.00,Wunderground v.1.15,2013-01-27 21:28:00,
2013-01-27 16:33:00,31.8,-1.9,30.42,West,264,1.0,11.0,23,0.00,,,0.00,Wunderground v.1.15,2013-01-27 21:33:00,
2013-01-27 16:39:00,31.5,-2.1,30.42,WNW,292,3.0,11.0,23,0.00,,,0.00,Wunderground v.1.15,2013-01-27 21:39:00,
2013-01-27 16:44:00,31.2,-1.5,30.42,WNW,286,1.0,4.0,24,0.00,,,0.00,Wunderground v.1.15,2013-01-27 21:44:00,
2013-01-27 16:49:00,30.7,-1.9,30.42,WNW,303,2.0,5.0,24,0.00,,,0.00,Wunderground v.1.15,2013-01-27 21:49:00,
2013-01-27 16:54:00,30.6,-2.0,30.42,WNW,294,3.0,6.0,24,0.00,,,0.00,Wunderground v.1.15,2013-01-27 21:54:00,
2013-01-27 16:59:00,30.3,-2.2,30.42,WNW,292,0.0,6.0,24,0.00,,,0.00,Wunderground v.1.15,2013-01-27 21:59:00,
2013-01-27 17:04:00,30.1,-2.4,30.42,West,262,3.0,5.0,24,0.00,,,0.00,Wunderground v.1.15,2013-01-27 22:04:00,
2013-01-27 17:09:00,30.0,-2.5,30.43,West,265,5.0,5.0,24,0.00,,,0.00,Wunderground v.1.15,2013-01-27 22:09:00,
2013-01-27 17:14:00,29.8,-1.8,30.43,West,260,0.0,5.0,25,0.00,,,0.00,Wunderground v.1.15,2013-01-27 22:14:00,
2013-01-27 17:19:00,29.5,-2.1,30.43,NW,307,0.0,5.0,25,0.00,,,0.00,Wunderground v.1.15,2013-01-27 22:19:00,
2013-01-27 17:24:00,29.4,-2.2,30.43,WNW,284,2.0,5.0,25,0.00,,,0.00,Wunderground v.1.15,2013-01-27 22:24:00,
2013-01-27 17:29:00,29.4,-2.2,30.43,WSW,252,4.0,10.0,25,0.00,,,0.00,Wunderground v.1.15,2013-01-27 22:29:00,
2013-01-27 17:34:00,29.1,-1.6,30.45,NW,313,3.0,7.0,26,0.00,,,0.00,Wunderground v.1.15,2013-01-27 22:34:00,
2013-01-27 17:39:00,29.0,-2.5,30.45,West,281,3.0,7.0,25,0.00,,,0.00,Wunderground v.1.15,2013-01-27 22:39:00,
2013-01-27 17:44:00,28.8,-2.7,30.45,WSW,254,4.0,6.0,25,0.00,,,0.00,Wunderground v.1.15,2013-01-27 22:44:00,
2013-01-27 17:49:00,28.7,-1.9,30.45,NW,315,2.0,6.0,26,0.00,,,0.00,Wunderground v.1.15,2013-01-27 22:49:00,
2013-01-27 17:54:00,28.5,-2.9,30.45,WNW,284,0.0,5.0,25,0.00,,,0.00,Wunderground v.1.15,2013-01-27 22:54:00,
2013-01-27 17:59:00,28.4,-2.2,30.45,West,273,2.0,5.0,26,0.00,,,0.00,Wunderground v.1.15,2013-01-27 22:59:00,
2013-01-27 18:04:00,28.2,-2.4,30.45,WNW,284,0.0,9.0,26,0.00,,,0.00,Wunderground v.1.15,2013-01-27 23:04:00,
2013-01-27 18:09:00,28.2,-2.4,30.45,WNW,284,2.0,9.0,26,0.00,,,0.00,Wunderground v.1.15,2013-01-27 23:09:00,
2013-01-27 18:14:00,27.9,-2.6,30.45,West,276,3.0,6.0,26,0.00,,,0.00,Wunderground v.1.15,2013-01-27 23:14:00,
2013-01-27 18:19:00,27.9,-3.4,30.46,West,281,2.0,7.0,25,0.00,,,0.00,Wunderground v.1.15,2013-01-27 23:19:00,
2013-01-27 18:24:00,27.8,-4.4,30.46,West,274,0.0,4.0,24,0.00,,,0.00,Wunderground v.1.15,2013-01-27 23:24:00,
2013-01-27 18:29:00,27.8,-4.4,30.46,NW,323,1.0,11.0,24,0.00,,,0.00,Wunderground v.1.15,2013-01-27 23:29:00,
2013-01-27 18:34:00,27.8,-4.4,30.45,WNW,290,2.0,8.0,24,0.00,,,0.00,Wunderground v.1.15,2013-01-27 23:34:00,
2013-01-27 18:39:00,27.8,-3.5,30.45,West,277,0.0,8.0,25,0.00,,,0.00,Wunderground v.1.15,2013-01-27 23:39:00,
2013-01-27 18:44:00,27.6,-4.6,30.45,West,279,3.0,8.0,24,0.00,,,0.00,Wunderground v.1.15,2013-01-27 23:44:00,
2013-01-27 18:49:00,27.6,-5.4,30.45,WNW,295,2.0,8.0,23,0.00,,,0.00,Wunderground v.1.15,2013-01-27 23:49:00,
2013-01-27 18:54:00,27.6,-4.6,30.45,West,271,0.0,6.0,24,0.00,,,0.00,Wunderground v.1.15,2013-01-27 23:54:00,
2013-01-27 18:59:00,27.5,-4.6,30.45,West,271,0.0,6.0,24,0.00,,,0.00,Wunderground v.1.15,2013-01-27 23:59:00,
2013-01-27 19:04:00,27.2,-4.9,30.45,WNW,301,2.0,4.0,24,0.00,,,0.00,Wunderground v.1.15,2013-01-28 00:04:00,
2013-01-27 19:09:00,27.0,-5.1,30.45,WNW,289,0.0,4.0,24,0.00,,,0.00,Wunderground v.1.15,2013-01-28 00:09:00,
2013-01-27 19:14:00,26.9,-5.2,30.45,NW,311,0.0,5.0,24,0.00,,,0.00,Wunderground v.1.15,2013-01-28 00:14:00,
2013-01-27 19:19:00,26.9,-5.2,30.46,NW,311,0.0,5.0,24,0.00,,,0.00,Wunderground v.1.15,2013-01-28 00:19:00,
2013-01-27 19:24:00,26.7,-5.3,30.46,NW,311,0.0,2.0,24,0.00,,,0.00,Wunderground v.1.15,2013-01-28 00:24:00,
2013-01-27 19:29:00,26.7,-4.5,30.46,NW,311,0.0,2.0,25,0.00,,,0.00,Wunderground v.1.15,2013-01-28 00:29:00,
2013-01-27 19:34:00,26.6,-4.6,30.47,WNW,296,1.0,3.0,25,0.00,,,0.00,Wunderground v.1.15,2013-01-28 00:34:00,
2013-01-27 19:39:00,26.4,-3.9,30.47,WNW,296,0.0,3.0,26,0.00,,,0.00,Wunderground v.1.15,2013-01-28 00:39:00,
2013-01-27 19:45:00,26.1,-4.2,30.47,WNW,296,0.0,2.0,26,0.00,,,0.00,Wunderground v.1.15,2013-01-28 00:45:00,
2013-01-27 19:50:00,26.1,-4.2,30.46,WNW,298,2.0,3.0,26,0.00,,,0.00,Wunderground v.1.15,2013-01-28 00:50:00,
2013-01-27 19:55:00,26.0,-4.3,30.46,WNW,298,1.0,3.0,26,0.00,,,0.00,Wunderground v.1.15,2013-01-28 00:55:00,
2013-01-27 20:00:00,26.0,-4.3,30.46,WNW,298,0.0,3.0,26,0.00,,,0.00,Wunderground v.1.15,2013-01-28 01:00:00,
2013-01-27 20:05:00,25.8,-4.4,30.47,WNW,298,0.0,0.0,26,0.00,,,0.00,Wunderground v.1.15,2013-01-28 01:05:00,
2013-01-27 20:10:00,25.8,-4.4,30.47,WNW,296,0.0,4.0,26,0.00,,,0.00,Wunderground v.1.15,2013-01-28 01:10:00,
2013-01-27 20:15:00,26.0,-4.3,30.47,WNW,296,0.0,2.0,26,0.00,,,0.00,Wunderground v.1.15,2013-01-28 01:15:00,
2013-01-27 20:20:00,25.8,-4.4,30.47,WNW,296,0.0,2.0,26,0.00,,,0.00,Wunderground v.1.15,2013-01-28 01:20:00,
2013-01-27 20:25:00,25.7,-4.5,30.47,WNW,296,0.0,0.0,26,0.00,,,0.00,Wunderground v.1.15,2013-01-28 01:25:00,
2013-01-27 20:30:00,25.6,-4.6,30.47,WNW,296,0.0,0.0,26,0.00,,,0.00,Wunderground v.1.15,2013-01-28 01:30:00,
2013-01-27 20:35:00,25.6,-4.6,30.47,WNW,296,0.0,0.0,26,0.00,,,0.00,Wunderground v.1.15,2013-01-28 01:35:00,
2013-01-27 20:40:00,25.4,-4.8,30.47,WNW,296,0.0,0.0,26,0.00,,,0.00,Wunderground v.1.15,2013-01-28 01:40:00,
2013-01-27 20:45:00,25.3,-4.9,30.47,WNW,296,0.0,0.0,26,0.00,,,0.00,Wunderground v.1.15,2013-01-28 01:45:00,
2013-01-27 20:50:00,25.3,-4.9,30.46,WNW,296,0.0,0.0,26,0.00,,,0.00,Wunderground v.1.15,2013-01-28 01:50:00,
2013-01-27 20:55:00,25.1,-5.0,30.46,WNW,296,0.0,0.0,26,0.00,,,0.00,Wunderground v.1.15,2013-01-28 01:55:00,
2013-01-27 21:00:00,24.8,-4.5,30.46,WNW,296,0.0,0.0,27,0.00,,,0.00,Wunderground v.1.15,2013-01-28 02:00:00,
2013-01-27 21:05:00,24.5,-4.0,30.47,WNW,296,0.0,0.0,28,0.00,,,0.00,Wunderground v.1.15,2013-01-28 02:05:00,
2013-01-27 21:10:00,24.2,-4.3,30.47,WNW,296,0.0,0.0,28,0.00,,,0.00,Wunderground v.1.15,2013-01-28 02:10:00,
2013-01-27 21:15:00,24.2,-4.3,30.47,WNW,296,0.0,0.0,28,0.00,,,0.00,Wunderground v.1.15,2013-01-28 02:15:00,
2013-01-27 21:20:00,24.1,-4.4,30.47,WNW,296,0.0,0.0,28,0.00,,,0.00,Wunderground v.1.15,2013-01-28 02:20:00,
2013-01-27 21:25:00,24.1,-4.4,30.47,WNW,296,0.0,0.0,28,0.00,,,0.00,Wunderground v.1.15,2013-01-28 02:25:00,
2013-01-27 21:30:00,23.9,-4.5,30.47,WNW,296,0.0,0.0,28,0.00,,,0.00,Wunderground v.1.15,2013-01-28 02:30:00,
2013-01-27 21:35:00,23.8,-5.4,30.46,WNW,296,0.0,0.0,27,0.00,,,0.00,Wunderground v.1.15,2013-01-28 02:35:00,
2013-01-27 21:40:00,23.5,-2.1,30.46,WNW,296,0.0,0.0,32,0.00,,,0.00,Wunderground v.1.15,2013-01-28 02:40:00,
2013-01-27 21:45:00,22.7,0.9,30.46,WNW,296,0.0,0.0,38,0.00,,,0.00,Wunderground v.1.15,2013-01-28 02:45:00,
2013-01-27 21:50:00,22.4,-1.2,30.46,WNW,296,0.0,0.0,35,0.00,,,0.00,Wunderground v.1.15,2013-01-28 02:50:00,
2013-01-27 21:55:00,22.2,-2.0,30.46,WNW,296,0.0,0.0,34,0.00,,,0.00,Wunderground v.1.15,2013-01-28 02:55:00,
2013-01-27 22:00:00,22.1,-3.3,30.46,WNW,296,0.0,0.0,32,0.00,,,0.00,Wunderground v.1.15,2013-01-28 03:00:00,
2013-01-27 22:05:00,21.9,-2.2,30.47,WNW,296,0.0,0.0,34,0.00,,,0.00,Wunderground v.1.15,2013-01-28 03:05:00,
2013-01-27 22:10:00,21.8,-1.7,30.47,WNW,296,0.0,0.0,35,0.00,,,0.00,Wunderground v.1.15,2013-01-28 03:10:00,
2013-01-27 22:15:00,21.4,-3.3,30.47,WNW,296,0.0,0.0,33,0.00,,,0.00,Wunderground v.1.15,2013-01-28 03:15:00,
2013-01-27 22:20:00,21.4,-3.9,30.47,WNW,296,0.0,0.0,32,0.00,,,0.00,Wunderground v.1.15,2013-01-28 03:20:00,
2013-01-27 22:25:00,21.6,-4.4,30.47,WNW,296,0.0,0.0,31,0.00,,,0.00,Wunderground v.1.15,2013-01-28 03:25:00,
2013-01-27 22:30:00,21.8,-4.3,30.47,WNW,296,0.0,0.0,31,0.00,,,0.00,Wunderground v.1.15,2013-01-28 03:30:00,
2013-01-27 22:35:00,21.8,-4.3,30.47,WNW,296,0.0,0.0,31,0.00,,,0.00,Wunderground v.1.15,2013-01-28 03:35:00,
2013-01-27 22:40:00,21.4,-4.6,30.47,WNW,296,0.0,0.0,31,0.00,,,0.00,Wunderground v.1.15,2013-01-28 03:40:00,
2013-01-27 22:46:00,21.1,-1.7,30.47,WNW,296,0.0,0.0,36,0.00,,,0.00,Wunderground v.1.15,2013-01-28 03:46:00,
2013-01-27 22:51:00,20.8,-4.5,30.48,WNW,296,0.0,0.0,32,0.00,,,0.00,Wunderground v.1.15,2013-01-28 03:51:00,
2013-01-27 22:56:00,20.6,-4.7,30.48,WNW,296,0.0,0.0,32,0.00,,,0.00,Wunderground v.1.15,2013-01-28 03:56:00,
2013-01-27 23:01:00,20.6,-4.0,30.48,WNW,296,0.0,0.0,33,0.00,,,0.00,Wunderground v.1.15,2013-01-28 04:01:00,
2013-01-27 23:06:00,20.5,-4.1,30.47,WNW,296,0.0,0.0,33,0.00,,,0.00,Wunderground v.1.15,2013-01-28 04:06:00,
2013-01-27 23:11:00,20.5,-4.1,30.47,WNW,296,0.0,0.0,33,0.00,,,0.00,Wunderground v.1.15,2013-01-28 04:11:00,
2013-01-27 23:16:00,21.1,-4.9,30.47,WNW,296,0.0,0.0,31,0.00,,,0.00,Wunderground v.1.15,2013-01-28 04:16:00,
2013-01-27 23:21:00,21.6,-4.4,30.46,WNW,296,0.0,0.0,31,0.00,,,0.00,Wunderground v.1.15,2013-01-28 04:21:00,
2013-01-27 23:26:00,21.1,-3.6,30.46,WNW,296,0.0,0.0,33,0.00,,,0.00,Wunderground v.1.15,2013-01-28 04:26:00,
2013-01-27 23:31:00,21.0,-3.7,30.46,WNW,296,0.0,0.0,33,0.00,,,0.00,Wunderground v.1.15,2013-01-28 04:31:00,
2013-01-27 23:36:00,21.1,-4.2,30.46,WNW,296,0.0,0.0,32,0.00,,,0.00,Wunderground v.1.15,2013-01-28 04:36:00,
2013-01-27 23:41:00,21.3,-2.2,30.46,WNW,296,0.0,0.0,35,0.00,,,0.00,Wunderground v.1.15,2013-01-28 04:41:00,
2013-01-27 23:46:00,20.6,-0.5,30.46,WNW,296,0.0,0.0,39,0.00,,,0.00,Wunderground v.1.15,2013-01-28 04:46:00,
2013-01-27 23:51:00,20.2,0.2,30.46,WNW,296,0.0,0.0,41,0.00,,,0.00,Wunderground v.1.15,2013-01-28 04:51:00,
2013-01-27 23:56:00,19.5,-0.4,30.46,WNW,296,0.0,0.0,41,0.00,,,0.00,Wunderground v.1.15,2013-01-28 04:56:00,